Terminal Aerodrome Forecast
Issued by NWS

Home | Current Version | Previous Version | Text Only | Print | Product List | Glossary On
Versions: 1 2 3 4 5 6 7 8 9 10 11 12 13 14 15 16 17
000
FTAK31 PANC 242330
TAFADQ
TAF
PADQ 242330Z 2500/2524 28011KT P6SM SCT060 BKN090
     FM250600 33011KT P6SM FEW040=

USA.gov is the U.S. government's official web portal to all federal, state and local government web resources and services.